Hulianwang W. Digui 06-08

operational
NORAD ID: 65050 Int'l Des: 2025-162 Owner: ZXW Country: CN Constellation: xingwang
LEOCIRCULAR

About Hulianwang W. Digui 06-08

Description loading...

Live Position

Loading 3D Globe...

Upcoming Passes

Altitude History

Altitude vs Time

uPlot chart will show altitude changes over time

Two-Line Element Set

1 65050U 25162H 25315.08806089 -.00000060 00000-0 13768-3 0 9992
2 65050 50.0038 327.7583 0000156 10.1272 349.9604 13.29808976 14355
Epoch: Nov 11, 2025 • Age: 18 hours

Current Status

Altitude 1147.3 km
Velocity 7.28 km/s
Sub-Earth Point 17.87°N, 14.58°W
Launch Date Jul 30, 2025
Age 0.2 years
Type other

Technical Details

Classification Payload
Mass 800.00 kg
Dry Mass 800.00 kg
Total Mass 800.00 kg
Length 3.00 m
Diameter 1.00 m
Span 10.00 m
Shape Box + 2 Pan
Manufacturer SECM
Bus Type Guowang S
Phase Status In Orbit
Owner/State ZXW/CN

Large Constellations

Loading constellations...